Time,TemperatureF,DewpointF,PressureIn,WindDirection,WindDirectionDegrees,WindSpeedMPH,WindSpeedGustMPH,Humidity,HourlyPrecipIn,Conditions,Clouds,dailyrainin,SoftwareType,DateUTC
2013-03-10 00:01:00,31.8,28.9,30.30,NNE,22,0.0,0.0,89,0.00,,,0.00,Weather View 32 v70,2013-03-10 09:01:00,
2013-03-10 00:06:00,31.8,28.9,30.30,NNE,22,0.0,0.0,89,0.00,,,0.00,Weather View 32 v70,2013-03-10 09:06:00,
2013-03-10 00:11:00,31.8,28.9,30.30,NNE,22,0.0,0.0,89,0.00,,,0.00,Weather View 32 v70,2013-03-10 09:11:00,
2013-03-10 00:16:00,31.8,28.7,30.30,NNE,22,0.0,0.0,88,0.00,,,0.00,Weather View 32 v70,2013-03-10 09:16:00,
2013-03-10 00:21:00,31.6,28.5,30.30,NNE,22,0.0,0.0,88,0.00,,,0.00,Weather View 32 v70,2013-03-10 09:21:00,
2013-03-10 00:26:00,31.8,28.7,30.30,NNE,22,0.0,0.0,88,0.00,,,0.00,Weather View 32 v70,2013-03-10 09:26:00,
2013-03-10 00:31:00,31.8,28.7,30.30,NNE,22,0.0,0.0,88,0.00,,,0.00,Weather View 32 v70,2013-03-10 09:31:00,
2013-03-10 00:36:00,31.8,28.7,30.30,NNE,22,0.0,0.0,88,0.00,,,0.00,Weather View 32 v70,2013-03-10 09:36:00,
2013-03-10 00:41:00,31.6,28.5,30.30,NNE,22,0.0,0.0,88,0.00,,,0.00,Weather View 32 v70,2013-03-10 09:41:00,
2013-03-10 00:46:00,31.5,28.3,30.30,NNE,22,0.0,0.0,88,0.00,,,0.00,Weather View 32 v70,2013-03-10 09:46:00,
2013-03-10 00:51:00,31.5,28.3,30.30,NNE,22,0.0,0.0,88,0.00,,,0.00,Weather View 32 v70,2013-03-10 09:51:00,
2013-03-10 00:56:00,31.1,28.0,30.30,NNE,22,0.0,0.0,88,0.00,,,0.00,Weather View 32 v70,2013-03-10 09:56:00,
2013-03-10 01:01:00,30.6,27.4,30.30,NNE,22,0.0,0.0,88,0.00,,,0.00,Weather View 32 v70,2013-03-10 10:01:00,
2013-03-10 01:06:00,30.4,27.3,30.30,NNE,22,0.0,0.0,88,0.00,,,0.00,Weather View 32 v70,2013-03-10 10:06:00,
2013-03-10 01:11:00,29.7,26.5,30.30,NNE,22,0.0,0.0,88,0.00,,,0.00,Weather View 32 v70,2013-03-10 10:11:00,
2013-03-10 01:16:00,29.3,26.2,30.30,NNE,22,0.0,0.0,88,0.00,,,0.00,Weather View 32 v70,2013-03-10 10:16:00,
2013-03-10 01:21:00,28.8,25.4,30.30,NNE,22,0.0,0.0,87,0.00,,,0.00,Weather View 32 v70,2013-03-10 10:21:00,
2013-03-10 01:26:00,28.6,25.2,30.31,NNE,22,0.0,0.0,87,0.00,,,0.00,Weather View 32 v70,2013-03-10 10:26:00,
2013-03-10 01:31:00,28.2,25.1,30.31,NNE,22,0.0,0.0,88,0.00,,,0.00,Weather View 32 v70,2013-03-10 10:31:00,
2013-03-10 01:36:00,28.2,25.1,30.31,NNE,22,0.0,0.0,88,0.00,,,0.00,Weather View 32 v70,2013-03-10 10:36:00,
2013-03-10 01:41:00,28.2,25.1,30.31,NNE,22,0.0,0.0,88,0.00,,,0.00,Weather View 32 v70,2013-03-10 10:41:00,
2013-03-10 01:46:00,28.2,25.1,30.30,NNE,22,0.0,0.0,88,0.00,,,0.00,Weather View 32 v70,2013-03-10 10:46:00,
2013-03-10 01:51:00,27.7,24.6,30.30,NNE,22,0.0,0.0,88,0.00,,,0.00,Weather View 32 v70,2013-03-10 10:51:00,
2013-03-10 01:56:00,27.7,24.6,30.30,NNE,22,0.0,0.0,88,0.00,,,0.00,Weather View 32 v70,2013-03-10 10:56:00,
2013-03-10 03:01:00,27.7,24.9,30.30,NNE,22,0.0,0.0,89,0.00,,,0.00,Weather View 32 v70,2013-03-10 11:01:00,
2013-03-10 03:06:00,27.7,24.9,30.31,NNE,22,0.0,0.0,89,0.00,,,0.00,Weather View 32 v70,2013-03-10 11:06:00,
2013-03-10 03:11:00,27.7,24.9,30.31,NNE,22,0.0,0.0,89,0.00,,,0.00,Weather View 32 v70,2013-03-10 11:11:00,
2013-03-10 03:16:00,27.7,24.9,30.31,NNE,22,0.0,0.0,89,0.00,,,0.00,Weather View 32 v70,2013-03-10 11:16:00,
2013-03-10 03:21:00,27.5,24.7,30.31,NNE,22,0.0,0.0,89,0.00,,,0.00,Weather View 32 v70,2013-03-10 11:21:00,
2013-03-10 03:26:00,27.5,24.7,30.31,NNE,22,0.0,0.0,89,0.00,,,0.00,Weather View 32 v70,2013-03-10 11:26:00,
2013-03-10 03:31:00,27.5,24.7,30.31,NNE,22,0.0,0.0,89,0.00,,,0.00,Weather View 32 v70,2013-03-10 11:31:00,
2013-03-10 03:36:00,27.5,24.7,30.31,NNE,22,0.0,0.0,89,0.00,,,0.00,Weather View 32 v70,2013-03-10 11:36:00,
2013-03-10 03:41:00,27.5,24.7,30.31,NNE,22,0.0,0.0,89,0.00,,,0.00,Weather View 32 v70,2013-03-10 11:41:00,
2013-03-10 03:46:00,27.5,24.7,30.31,NNE,22,0.0,0.0,89,0.00,,,0.00,Weather View 32 v70,2013-03-10 11:46:00,
2013-03-10 03:51:00,27.9,25.0,30.31,NNE,22,0.0,0.0,89,0.00,,,0.00,Weather View 32 v70,2013-03-10 11:51:00,
2013-03-10 03:56:00,28.2,25.4,30.31,NNE,22,0.0,0.0,89,0.00,,,0.00,Weather View 32 v70,2013-03-10 11:56:00,
2013-03-10 04:01:00,28.6,25.5,30.31,NNE,22,0.0,0.0,88,0.00,,,0.00,Weather View 32 v70,2013-03-10 12:01:00,
2013-03-10 04:06:00,28.4,25.3,30.31,NNE,22,0.0,0.0,88,0.00,,,0.00,Weather View 32 v70,2013-03-10 12:06:00,
2013-03-10 04:11:00,28.4,25.3,30.31,NNE,22,0.0,0.0,88,0.00,,,0.00,Weather View 32 v70,2013-03-10 12:11:00,
2013-03-10 04:16:00,28.9,25.8,30.31,NNE,22,0.0,0.0,88,0.00,,,0.00,Weather View 32 v70,2013-03-10 12:16:00,
2013-03-10 04:21:00,28.9,25.8,30.31,NNE,22,0.0,0.0,88,0.00,,,0.00,Weather View 32 v70,2013-03-10 12:21:00,
2013-03-10 04:26:00,29.1,25.7,30.31,NNE,22,0.0,0.0,87,0.00,,,0.00,Weather View 32 v70,2013-03-10 12:26:00,
2013-03-10 04:31:00,29.7,26.3,30.31,NNE,22,0.0,0.0,87,0.00,,,0.00,Weather View 32 v70,2013-03-10 12:31:00,
2013-03-10 04:36:00,29.7,26.0,30.31,NNE,22,0.0,0.0,86,0.00,,,0.00,Weather View 32 v70,2013-03-10 12:36:00,
2013-03-10 04:41:00,29.7,26.0,30.31,NNE,22,0.0,0.0,86,0.00,,,0.00,Weather View 32 v70,2013-03-10 12:41:00,
2013-03-10 04:46:00,29.5,25.5,30.31,NNE,22,0.0,0.0,85,0.00,,,0.00,Weather View 32 v70,2013-03-10 12:46:00,
2013-03-10 04:51:00,29.7,25.7,30.31,NNE,22,0.0,0.0,85,0.00,,,0.00,Weather View 32 v70,2013-03-10 12:51:00,
2013-03-10 04:56:00,29.7,25.4,30.31,NNE,22,0.0,0.0,84,0.00,,,0.00,Weather View 32 v70,2013-03-10 12:56:00,
2013-03-10 05:01:00,29.7,25.1,30.31,NNE,22,0.0,0.0,83,0.00,,,0.00,Weather View 32 v70,2013-03-10 13:01:00,
2013-03-10 05:06:00,29.7,25.1,30.30,NNE,22,0.0,0.0,83,0.00,,,0.00,Weather View 32 v70,2013-03-10 13:06:00,
2013-03-10 05:11:00,29.7,24.8,30.30,NNE,22,0.0,0.0,82,0.00,,,0.00,Weather View 32 v70,2013-03-10 13:11:00,
2013-03-10 05:16:00,29.7,24.5,30.30,NNE,22,0.0,0.0,81,0.00,,,0.00,Weather View 32 v70,2013-03-10 13:16:00,
2013-03-10 05:21:00,29.7,24.5,30.30,NNE,22,0.0,0.0,81,0.00,,,0.00,Weather View 32 v70,2013-03-10 13:21:00,
2013-03-10 05:26:00,29.7,24.5,30.30,NNE,22,0.0,0.0,81,0.00,,,0.00,Weather View 32 v70,2013-03-10 13:26:00,
2013-03-10 05:31:00,29.7,23.9,30.30,NNE,22,0.0,0.0,79,0.00,,,0.00,Weather View 32 v70,2013-03-10 13:31:00,
2013-03-10 05:36:00,30.0,24.3,30.30,NNE,22,0.0,0.0,79,0.00,,,0.00,Weather View 32 v70,2013-03-10 13:36:00,
2013-03-10 05:41:00,30.0,24.0,30.30,NNE,22,0.0,0.0,78,0.00,,,0.00,Weather View 32 v70,2013-03-10 13:41:00,
2013-03-10 05:47:00,30.4,24.3,30.30,NNE,22,0.0,0.0,78,0.00,,,0.00,Weather View 32 v70,2013-03-10 13:47:00,
2013-03-10 05:52:00,30.4,24.3,30.30,NNE,22,0.0,0.0,78,0.00,,,0.00,Weather View 32 v70,2013-03-10 13:52:00,
2013-03-10 05:57:00,30.4,24.0,30.30,NNE,22,0.0,0.0,77,0.00,,,0.00,Weather View 32 v70,2013-03-10 13:57:00,
2013-03-10 06:02:00,30.4,24.0,30.30,NNE,22,0.0,0.0,77,0.00,,,0.00,Weather View 32 v70,2013-03-10 14:02:00,
2013-03-10 06:07:00,30.4,23.7,30.30,NNE,22,0.0,0.0,76,0.00,,,0.00,Weather View 32 v70,2013-03-10 14:07:00,
2013-03-10 06:11:00,30.4,23.7,30.30,NNE,22,0.0,0.0,76,0.00,,,0.00,Weather View 32 v70,2013-03-10 14:11:00,
2013-03-10 06:16:00,30.4,23.4,30.30,NNE,22,0.0,0.0,75,0.00,,,0.00,Weather View 32 v70,2013-03-10 14:16:00,
2013-03-10 06:21:00,30.4,23.4,30.30,NNE,22,0.0,0.0,75,0.00,,,0.00,Weather View 32 v70,2013-03-10 14:21:00,
2013-03-10 06:26:00,30.4,23.4,30.29,NNE,22,0.0,0.0,75,0.00,,,0.00,Weather View 32 v70,2013-03-10 14:26:00,
2013-03-10 06:32:00,30.7,23.4,30.29,NNE,22,0.0,0.0,74,0.00,,,0.00,Weather View 32 v70,2013-03-10 14:32:00,
2013-03-10 06:36:00,30.4,23.1,30.29,NNE,22,0.0,0.0,74,0.00,,,0.00,Weather View 32 v70,2013-03-10 14:36:00,
2013-03-10 06:41:00,30.6,23.3,30.29,NNE,22,0.0,0.0,74,0.00,,,0.00,Weather View 32 v70,2013-03-10 14:41:00,
2013-03-10 06:46:00,30.6,22.9,30.29,NNE,22,0.0,0.0,73,0.00,,,0.00,Weather View 32 v70,2013-03-10 14:46:00,
2013-03-10 06:51:00,30.6,22.9,30.29,NNE,22,0.0,0.0,73,0.00,,,0.00,Weather View 32 v70,2013-03-10 14:51:00,
2013-03-10 06:56:00,30.6,22.9,30.29,NNE,22,0.0,0.0,73,0.00,,,0.00,Weather View 32 v70,2013-03-10 14:56:00,
2013-03-10 07:02:00,30.6,22.9,30.29,NNE,22,0.0,0.0,73,0.00,,,0.00,Weather View 32 v70,2013-03-10 15:02:00,
2013-03-10 07:07:00,30.6,22.9,30.29,NNE,22,0.0,0.0,73,0.00,,,0.00,Weather View 32 v70,2013-03-10 15:07:00,
2013-03-10 07:12:00,30.6,22.9,30.29,NNE,22,0.0,0.0,73,0.00,,,0.00,Weather View 32 v70,2013-03-10 15:12:00,
2013-03-10 07:17:00,30.7,23.1,30.29,NNE,22,0.0,0.0,73,0.00,,,0.00,Weather View 32 v70,2013-03-10 15:17:00,
2013-03-10 07:22:00,30.7,23.1,30.29,NNE,22,0.0,0.0,73,0.00,,,0.00,Weather View 32 v70,2013-03-10 15:22:00,
2013-03-10 07:27:00,30.7,23.1,30.29,NNE,22,0.0,0.0,73,0.00,,,0.00,Weather View 32 v70,2013-03-10 15:27:00,
2013-03-10 07:32:00,30.7,23.1,30.29,NNE,22,0.0,0.0,73,0.00,,,0.00,Weather View 32 v70,2013-03-10 15:32:00,
2013-03-10 07:37:00,31.1,23.1,30.29,NNE,22,0.0,0.0,72,0.00,,,0.00,Weather View 32 v70,2013-03-10 15:37:00,
2013-03-10 07:42:00,30.7,22.8,30.29,NNE,22,0.0,0.0,72,0.00,,,0.00,Weather View 32 v70,2013-03-10 15:42:00,
2013-03-10 07:47:00,30.7,23.1,30.29,NNE,22,0.0,0.0,73,0.00,,,0.00,Weather View 32 v70,2013-03-10 15:47:00,
2013-03-10 07:52:00,30.7,23.1,30.29,NNE,22,0.0,0.0,73,0.00,,,0.00,Weather View 32 v70,2013-03-10 15:52:00,
2013-03-10 07:57:00,30.6,22.9,30.29,NNE,22,0.0,0.0,73,0.00,,,0.00,Weather View 32 v70,2013-03-10 15:57:00,
2013-03-10 08:02:00,30.6,22.9,30.29,NNE,22,0.0,0.0,73,0.00,,,0.00,Weather View 32 v70,2013-03-10 16:02:00,
2013-03-10 08:07:00,30.6,22.9,30.28,NNE,22,0.0,0.0,73,0.00,,,0.00,Weather View 32 v70,2013-03-10 16:07:00,
2013-03-10 08:12:00,30.4,22.8,30.28,NNE,22,0.0,0.0,73,0.00,,,0.00,Weather View 32 v70,2013-03-10 16:12:00,
2013-03-10 08:17:00,30.7,23.1,30.28,NNE,22,0.0,0.0,73,0.00,,,0.00,Weather View 32 v70,2013-03-10 16:17:00,
2013-03-10 08:22:00,30.7,23.1,30.28,NNE,22,0.0,0.0,73,0.00,,,0.00,Weather View 32 v70,2013-03-10 16:22:00,
2013-03-10 08:27:00,31.1,23.5,30.28,NNE,22,0.0,0.0,73,0.00,,,0.00,Weather View 32 v70,2013-03-10 16:27:00,
2013-03-10 08:32:00,31.1,23.5,30.28,NNE,22,0.0,0.0,73,0.00,,,0.00,Weather View 32 v70,2013-03-10 16:32:00,
2013-03-10 08:37:00,31.1,23.5,30.28,NNE,22,0.0,0.0,73,0.00,,,0.00,Weather View 32 v70,2013-03-10 16:37:00,
2013-03-10 08:42:00,31.1,23.8,30.28,NNE,22,0.0,0.0,74,0.00,,,0.00,Weather View 32 v70,2013-03-10 16:42:00,
2013-03-10 08:47:00,31.1,23.8,30.28,NNE,22,0.0,0.0,74,0.00,,,0.00,Weather View 32 v70,2013-03-10 16:47:00,
2013-03-10 08:52:00,31.1,24.1,30.28,NNE,22,0.0,0.0,75,0.00,,,0.00,Weather View 32 v70,2013-03-10 16:52:00,
2013-03-10 08:57:00,31.1,24.4,30.28,NNE,22,0.0,0.0,76,0.00,,,0.00,Weather View 32 v70,2013-03-10 16:57:00,
2013-03-10 09:02:00,31.1,24.7,30.28,NNE,22,0.0,0.0,77,0.00,,,0.00,Weather View 32 v70,2013-03-10 17:02:00,
2013-03-10 09:07:00,31.1,25.0,30.31,NNE,22,0.0,0.0,78,0.00,,,0.00,Weather View 32 v70,2013-03-10 17:07:00,
2013-03-10 09:12:00,31.1,25.3,30.31,NNE,22,0.0,0.0,79,0.00,,,0.00,Weather View 32 v70,2013-03-10 17:12:00,
2013-03-10 09:17:00,30.7,25.3,30.31,NNE,22,0.0,0.0,80,0.00,,,0.00,Weather View 32 v70,2013-03-10 17:17:00,
2013-03-10 09:22:00,30.7,25.3,30.31,NNE,22,0.0,0.0,80,0.00,,,0.00,Weather View 32 v70,2013-03-10 17:22:00,
2013-03-10 09:27:00,31.1,26.0,30.32,NNE,22,0.0,0.0,81,0.00,,,0.00,Weather View 32 v70,2013-03-10 17:27:00,
2013-03-10 09:32:00,31.1,26.0,30.32,NNE,22,0.0,0.0,81,0.00,,,0.00,Weather View 32 v70,2013-03-10 17:32:00,
2013-03-10 09:37:00,31.1,26.2,30.32,NNE,22,0.0,0.0,82,0.00,,,0.00,Weather View 32 v70,2013-03-10 17:37:00,
2013-03-10 09:42:00,31.1,26.2,30.32,NNE,22,0.0,0.0,82,0.00,,,0.00,Weather View 32 v70,2013-03-10 17:42:00,
2013-03-10 09:47:00,31.1,26.5,30.33,NNE,22,0.0,0.0,83,0.00,,,0.00,Weather View 32 v70,2013-03-10 17:47:00,
2013-03-10 09:52:00,31.1,26.5,30.33,NNE,22,0.0,0.0,83,0.00,,,0.00,Weather View 32 v70,2013-03-10 17:52:00,
2013-03-10 09:57:00,31.1,26.5,30.33,NNE,22,0.0,0.0,83,0.00,,,0.00,Weather View 32 v70,2013-03-10 17:57:00,
2013-03-10 10:02:00,31.1,26.5,30.33,NNE,22,0.0,0.0,83,0.00,,,0.00,Weather View 32 v70,2013-03-10 18:02:00,
2013-03-10 10:07:00,30.9,26.4,30.33,NNE,22,0.0,0.0,83,0.00,,,0.00,Weather View 32 v70,2013-03-10 18:07:00,
2013-03-10 10:12:00,31.1,26.5,30.33,NNE,22,0.0,0.0,83,0.00,,,0.00,Weather View 32 v70,2013-03-10 18:12:00,
2013-03-10 10:17:00,31.1,26.8,30.33,NNE,22,0.0,0.0,84,0.00,,,0.00,Weather View 32 v70,2013-03-10 18:17:00,
2013-03-10 10:22:00,31.1,26.8,30.33,NNE,22,0.0,0.0,84,0.00,,,0.00,Weather View 32 v70,2013-03-10 18:22:00,
2013-03-10 10:27:00,31.1,26.8,30.34,NNE,22,0.0,0.0,84,0.00,,,0.00,Weather View 32 v70,2013-03-10 18:27:00,
2013-03-10 10:32:00,31.1,26.8,30.34,NNE,22,0.0,0.0,84,0.00,,,0.00,Weather View 32 v70,2013-03-10 18:32:00,
2013-03-10 10:37:00,31.1,26.8,30.34,NNE,22,0.0,0.0,84,0.00,,,0.00,Weather View 32 v70,2013-03-10 18:37:00,
2013-03-10 10:42:00,31.5,27.2,30.34,NNE,22,0.0,0.0,84,0.00,,,0.00,Weather View 32 v70,2013-03-10 18:42:00,
2013-03-10 10:47:00,31.5,27.2,30.34,NNE,22,0.0,0.0,84,0.00,,,0.00,Weather View 32 v70,2013-03-10 18:47:00,
2013-03-10 10:52:00,31.3,27.0,30.34,NNE,22,0.0,0.0,84,0.00,,,0.00,Weather View 32 v70,2013-03-10 18:52:00,
2013-03-10 10:57:00,31.5,27.2,30.34,NNE,22,0.0,0.0,84,0.00,,,0.00,Weather View 32 v70,2013-03-10 18:57:00,
2013-03-10 11:02:00,31.8,27.5,30.34,NNE,22,0.0,0.0,84,0.00,,,0.00,Weather View 32 v70,2013-03-10 19:02:00,
2013-03-10 11:07:00,31.5,27.2,30.33,NNE,22,0.0,0.0,84,0.00,,,0.00,Weather View 32 v70,2013-03-10 19:07:00,
2013-03-10 11:12:00,31.8,27.5,30.33,NNE,22,0.0,0.0,84,0.00,,,0.00,Weather View 32 v70,2013-03-10 19:12:00,
2013-03-10 11:17:00,31.8,27.5,30.33,NNE,22,0.0,0.0,84,0.00,,,0.00,Weather View 32 v70,2013-03-10 19:17:00,
2013-03-10 11:22:00,31.5,27.2,30.33,NNE,22,0.0,0.0,84,0.00,,,0.00,Weather View 32 v70,2013-03-10 19:22:00,
2013-03-10 11:27:00,31.8,27.5,30.33,NNE,22,0.0,0.0,84,0.00,,,0.00,Weather View 32 v70,2013-03-10 19:27:00,
2013-03-10 11:32:00,31.8,27.5,30.33,NNE,22,0.0,0.0,84,0.00,,,0.00,Weather View 32 v70,2013-03-10 19:32:00,
2013-03-10 11:37:00,31.8,27.5,30.33,NNE,22,0.0,0.0,84,0.00,,,0.00,Weather View 32 v70,2013-03-10 19:37:00,
2013-03-10 11:42:00,32.2,28.2,30.33,NNE,22,0.0,0.0,85,0.00,,,0.00,Weather View 32 v70,2013-03-10 19:42:00,
2013-03-10 11:47:00,32.0,27.7,30.33,NNE,22,0.0,0.0,84,0.00,,,0.00,Weather View 32 v70,2013-03-10 19:47:00,
2013-03-10 11:52:00,32.2,28.2,30.33,NNE,22,0.0,0.0,85,0.00,,,0.00,Weather View 32 v70,2013-03-10 19:52:00,
2013-03-10 11:57:00,32.5,28.5,30.33,NNE,22,0.0,0.0,85,0.00,,,0.00,Weather View 32 v70,2013-03-10 19:57:00,
2013-03-10 12:02:00,32.5,28.5,30.33,NNE,22,0.0,0.0,85,0.00,,,0.00,Weather View 32 v70,2013-03-10 20:02:00,
2013-03-10 12:07:00,32.7,28.4,30.34,NNE,22,0.0,0.0,84,0.00,,,0.00,Weather View 32 v70,2013-03-10 20:07:00,
2013-03-10 12:12:00,32.9,28.6,30.34,NNE,22,0.0,0.0,84,0.00,,,0.00,Weather View 32 v70,2013-03-10 20:12:00,
2013-03-10 12:17:00,32.9,28.6,30.34,NNE,22,0.0,0.0,84,0.00,,,0.00,Weather View 32 v70,2013-03-10 20:17:00,
2013-03-10 12:22:00,33.1,28.8,30.34,NNE,22,0.0,0.0,84,0.00,,,0.00,Weather View 32 v70,2013-03-10 20:22:00,
2013-03-10 12:27:00,32.9,28.6,30.34,NNE,22,0.0,0.0,84,0.00,,,0.00,Weather View 32 v70,2013-03-10 20:27:00,
2013-03-10 12:32:00,33.3,28.9,30.34,NNE,22,0.0,0.0,84,0.00,,,0.00,Weather View 32 v70,2013-03-10 20:32:00,
2013-03-10 12:37:00,33.4,29.1,30.34,NNE,22,0.0,0.0,84,0.00,,,0.00,Weather View 32 v70,2013-03-10 20:37:00,
2013-03-10 12:42:00,33.4,29.1,30.34,NNE,22,0.0,0.0,84,0.00,,,0.00,Weather View 32 v70,2013-03-10 20:42:00,
2013-03-10 12:47:00,33.8,29.5,30.34,NNE,22,0.0,0.0,84,0.00,,,0.00,Weather View 32 v70,2013-03-10 20:47:00,
2013-03-10 12:52:00,34.0,29.7,30.34,NNE,22,0.0,0.0,84,0.00,,,0.00,Weather View 32 v70,2013-03-10 20:52:00,
2013-03-10 12:57:00,34.2,29.8,30.34,NNE,22,0.0,0.0,84,0.00,,,0.00,Weather View 32 v70,2013-03-10 20:57:00,
2013-03-10 13:02:00,34.3,29.7,30.34,NNE,22,0.0,0.0,83,0.00,,,0.00,Weather View 32 v70,2013-03-10 21:02:00,
2013-03-10 13:07:00,34.2,29.5,30.34,NNE,22,0.0,0.0,83,0.00,,,0.00,Weather View 32 v70,2013-03-10 21:07:00,
2013-03-10 13:12:00,34.2,29.5,30.34,NNE,22,0.0,0.0,83,0.00,,,0.00,Weather View 32 v70,2013-03-10 21:12:00,
2013-03-10 13:17:00,34.7,30.1,30.34,NNE,22,0.0,0.0,83,0.00,,,0.00,Weather View 32 v70,2013-03-10 21:17:00,
2013-03-10 13:22:00,34.9,29.9,30.34,NNE,22,0.0,0.0,82,0.00,,,0.00,Weather View 32 v70,2013-03-10 21:22:00,
2013-03-10 13:27:00,34.9,29.9,30.34,NNE,22,0.0,0.0,82,0.00,,,0.00,Weather View 32 v70,2013-03-10 21:27:00,
2013-03-10 13:32:00,35.4,30.5,30.34,NNE,22,0.0,0.0,82,0.00,,,0.00,Weather View 32 v70,2013-03-10 21:32:00,
2013-03-10 13:37:00,35.6,30.3,30.34,NNE,22,0.0,0.0,81,0.00,,,0.00,Weather View 32 v70,2013-03-10 21:37:00,
2013-03-10 13:42:00,35.8,30.5,30.34,NNE,22,0.0,0.0,81,0.00,,,0.00,Weather View 32 v70,2013-03-10 21:42:00,
2013-03-10 13:47:00,35.6,30.3,30.34,NNE,22,0.0,0.0,81,0.00,,,0.00,Weather View 32 v70,2013-03-10 21:47:00,
2013-03-10 13:52:00,35.4,29.9,30.34,NNE,22,0.0,0.0,80,0.00,,,0.00,Weather View 32 v70,2013-03-10 21:52:00,
2013-03-10 13:57:00,35.6,30.0,30.34,NNE,22,0.0,0.0,80,0.00,,,0.00,Weather View 32 v70,2013-03-10 21:57:00,
2013-03-10 14:02:00,35.8,30.2,30.34,NNE,22,0.0,0.0,80,0.00,,,0.00,Weather View 32 v70,2013-03-10 22:02:00,
2013-03-10 14:07:00,35.6,29.7,30.33,NNE,22,0.0,0.0,79,0.00,,,0.00,Weather View 32 v70,2013-03-10 22:07:00,
2013-03-10 14:12:00,35.8,29.9,30.33,NNE,22,0.0,0.0,79,0.00,,,0.00,Weather View 32 v70,2013-03-10 22:12:00,
2013-03-10 14:17:00,35.8,29.9,30.33,NNE,22,0.0,0.0,79,0.00,,,0.00,Weather View 32 v70,2013-03-10 22:17:00,
2013-03-10 14:22:00,36.1,30.6,30.33,NNE,22,0.0,0.0,80,0.00,,,0.00,Weather View 32 v70,2013-03-10 22:22:00,
2013-03-10 14:27:00,36.3,30.1,30.34,NNE,22,0.0,0.0,78,0.00,,,0.00,Weather View 32 v70,2013-03-10 22:27:00,
2013-03-10 14:32:00,36.1,29.9,30.34,NNE,22,0.0,0.0,78,0.00,,,0.00,Weather View 32 v70,2013-03-10 22:32:00,
2013-03-10 14:37:00,36.3,30.1,30.34,NNE,22,0.0,0.0,78,0.00,,,0.00,Weather View 32 v70,2013-03-10 22:37:00,
2013-03-10 14:42:00,36.3,30.1,30.34,NNE,22,0.0,0.0,78,0.00,,,0.00,Weather View 32 v70,2013-03-10 22:42:00,
2013-03-10 14:47:00,35.8,29.9,30.34,NNE,22,0.0,0.0,79,0.00,,,0.00,Weather View 32 v70,2013-03-10 22:47:00,
2013-03-10 14:52:00,35.6,30.0,30.34,NNE,22,0.0,0.0,80,0.00,,,0.00,Weather View 32 v70,2013-03-10 22:52:00,
2013-03-10 14:57:00,35.4,30.2,30.34,NNE,22,0.0,0.0,81,0.00,,,0.00,Weather View 32 v70,2013-03-10 22:57:00,
2013-03-10 15:02:00,35.6,30.3,30.34,NNE,22,0.0,0.0,81,0.00,,,0.00,Weather View 32 v70,2013-03-10 23:02:00,
2013-03-10 15:07:00,35.8,30.5,30.34,NNE,22,0.0,0.0,81,0.00,,,0.00,Weather View 32 v70,2013-03-10 23:07:00,
2013-03-10 15:12:00,36.0,30.7,30.34,NNE,22,0.0,0.0,81,0.00,,,0.00,Weather View 32 v70,2013-03-10 23:12:00,
2013-03-10 15:17:00,36.1,30.6,30.34,NNE,22,0.0,0.0,80,0.00,,,0.00,Weather View 32 v70,2013-03-10 23:17:00,
2013-03-10 15:22:00,36.1,30.9,30.34,NNE,22,0.0,0.0,81,0.00,,,0.00,Weather View 32 v70,2013-03-10 23:22:00,
2013-03-10 15:27:00,36.1,30.9,30.35,NNE,22,0.0,0.0,81,0.00,,,0.00,Weather View 32 v70,2013-03-10 23:27:00,
2013-03-10 15:32:00,36.3,31.0,30.35,NNE,22,0.0,0.0,81,0.00,,,0.00,Weather View 32 v70,2013-03-10 23:32:00,
2013-03-10 15:37:00,36.1,30.9,30.35,NNE,22,0.0,0.0,81,0.00,,,0.00,Weather View 32 v70,2013-03-10 23:37:00,
2013-03-10 15:42:00,36.1,30.9,30.35,NNE,22,0.0,0.0,81,0.00,,,0.00,Weather View 32 v70,2013-03-10 23:42:00,
2013-03-10 15:47:00,36.0,30.7,30.35,NNE,22,0.0,0.0,81,0.00,,,0.00,Weather View 32 v70,2013-03-10 23:47:00,
2013-03-10 15:52:00,36.1,30.9,30.35,NNE,22,0.0,0.0,81,0.00,,,0.00,Weather View 32 v70,2013-03-10 23:52:00,
2013-03-10 15:57:00,36.3,31.0,30.35,NNE,22,0.0,0.0,81,0.00,,,0.00,Weather View 32 v70,2013-03-10 23:57:00,
2013-03-10 16:02:00,36.3,31.0,30.35,NNE,22,0.0,0.0,81,0.00,,,0.00,Weather View 32 v70,2013-03-11 00:02:00,
2013-03-10 16:07:00,36.9,31.3,30.35,NNE,22,0.0,0.0,80,0.00,,,0.00,Weather View 32 v70,2013-03-11 00:07:00,
2013-03-10 16:12:00,36.9,31.0,30.35,NNE,22,0.0,0.0,79,0.00,,,0.00,Weather View 32 v70,2013-03-11 00:12:00,
2013-03-10 16:17:00,36.5,30.9,30.35,NNE,22,0.0,0.0,80,0.00,,,0.00,Weather View 32 v70,2013-03-11 00:17:00,
2013-03-10 16:22:00,36.7,30.8,30.35,NNE,22,0.0,0.0,79,0.00,,,0.00,Weather View 32 v70,2013-03-11 00:22:00,
2013-03-10 16:27:00,36.9,31.0,30.35,NNE,22,0.0,0.0,79,0.00,,,0.00,Weather View 32 v70,2013-03-11 00:27:00,
2013-03-10 16:32:00,36.5,30.6,30.35,NNE,22,0.0,0.0,79,0.00,,,0.00,Weather View 32 v70,2013-03-11 00:32:00,
2013-03-10 16:37:00,36.1,30.6,30.35,NNE,22,0.0,0.0,80,0.00,,,0.00,Weather View 32 v70,2013-03-11 00:37:00,
2013-03-10 16:42:00,35.8,30.5,30.35,NNE,22,0.0,0.0,81,0.00,,,0.00,Weather View 32 v70,2013-03-11 00:42:00,
2013-03-10 16:47:00,35.2,30.0,30.35,NNE,22,0.0,0.0,81,0.00,,,0.00,Weather View 32 v70,2013-03-11 00:47:00,
2013-03-10 16:52:00,34.9,29.9,30.35,NNE,22,0.0,0.0,82,0.00,,,0.00,Weather View 32 v70,2013-03-11 00:52:00,
2013-03-10 16:57:00,34.9,29.9,30.35,NNE,22,0.0,0.0,82,0.00,,,0.00,Weather View 32 v70,2013-03-11 00:57:00,
2013-03-10 17:02:00,34.9,30.2,30.35,NNE,22,0.0,0.0,83,0.00,,,0.00,Weather View 32 v70,2013-03-11 01:02:00,
2013-03-10 17:07:00,34.9,30.2,30.36,NNE,22,0.0,0.0,83,0.00,,,0.00,Weather View 32 v70,2013-03-11 01:07:00,
2013-03-10 17:12:00,34.9,30.2,30.36,NNE,22,0.0,0.0,83,0.00,,,0.00,Weather View 32 v70,2013-03-11 01:12:00,
2013-03-10 17:17:00,34.5,29.9,30.36,NNE,22,0.0,0.0,83,0.00,,,0.00,Weather View 32 v70,2013-03-11 01:17:00,
2013-03-10 17:22:00,34.3,30.0,30.36,NNE,22,0.0,0.0,84,0.00,,,0.00,Weather View 32 v70,2013-03-11 01:22:00,
2013-03-10 17:27:00,34.0,29.7,30.37,NNE,22,0.0,0.0,84,0.00,,,0.00,Weather View 32 v70,2013-03-11 01:27:00,
2013-03-10 17:32:00,34.0,29.9,30.37,NNE,22,0.0,0.0,85,0.00,,,0.00,Weather View 32 v70,2013-03-11 01:32:00,
2013-03-10 17:37:00,34.0,29.9,30.37,NNE,22,0.0,0.0,85,0.00,,,0.00,Weather View 32 v70,2013-03-11 01:37:00,
2013-03-10 17:42:00,33.6,29.6,30.37,NNE,22,0.0,0.0,85,0.00,,,0.00,Weather View 32 v70,2013-03-11 01:42:00,
2013-03-10 17:47:00,33.4,29.7,30.37,NNE,22,0.0,0.0,86,0.00,,,0.00,Weather View 32 v70,2013-03-11 01:47:00,
2013-03-10 17:52:00,33.4,29.7,30.37,NNE,22,0.0,0.0,86,0.00,,,0.00,Weather View 32 v70,2013-03-11 01:52:00,
2013-03-10 17:57:00,33.6,29.9,30.37,NNE,22,0.0,0.0,86,0.00,,,0.00,Weather View 32 v70,2013-03-11 01:57:00,
2013-03-10 18:02:00,33.6,29.9,30.37,NNE,22,0.0,0.0,86,0.00,,,0.00,Weather View 32 v70,2013-03-11 02:02:00,
2013-03-10 18:07:00,34.0,30.2,30.37,NNE,22,0.0,0.0,86,0.00,,,0.00,Weather View 32 v70,2013-03-11 02:07:00,
2013-03-10 18:12:00,34.0,30.2,30.37,NNE,22,0.0,0.0,86,0.00,,,0.00,Weather View 32 v70,2013-03-11 02:12:00,
2013-03-10 18:17:00,34.0,30.2,30.37,NNE,22,0.0,0.0,86,0.00,,,0.00,Weather View 32 v70,2013-03-11 02:17:00,
2013-03-10 18:22:00,34.0,30.2,30.37,NNE,22,0.0,0.0,86,0.00,,,0.00,Weather View 32 v70,2013-03-11 02:22:00,
2013-03-10 18:27:00,34.0,30.2,30.38,NNE,22,0.0,0.0,86,0.00,,,0.00,Weather View 32 v70,2013-03-11 02:27:00,
2013-03-10 18:32:00,33.8,30.1,30.38,NNE,22,0.0,0.0,86,0.00,,,0.00,Weather View 32 v70,2013-03-11 02:32:00,
2013-03-10 18:37:00,34.0,30.2,30.38,NNE,22,0.0,0.0,86,0.00,,,0.00,Weather View 32 v70,2013-03-11 02:37:00,
2013-03-10 18:42:00,33.4,29.7,30.38,NNE,22,0.0,0.0,86,0.00,,,0.00,Weather View 32 v70,2013-03-11 02:42:00,
2013-03-10 18:48:00,33.6,29.9,30.38,NNE,22,0.0,0.0,86,0.00,,,0.00,Weather View 32 v70,2013-03-11 02:48:00,
2013-03-10 18:53:00,33.3,29.8,30.38,NNE,22,0.0,0.0,87,0.00,,,0.00,Weather View 32 v70,2013-03-11 02:53:00,
2013-03-10 18:58:00,32.9,29.5,30.38,NNE,22,0.0,0.0,87,0.00,,,0.00,Weather View 32 v70,2013-03-11 02:58:00,
2013-03-10 19:03:00,32.9,29.5,30.38,NNE,22,0.0,0.0,87,0.00,,,0.00,Weather View 32 v70,2013-03-11 03:03:00,
2013-03-10 19:08:00,32.7,29.3,30.38,NNE,22,0.0,0.0,87,0.00,,,0.00,Weather View 32 v70,2013-03-11 03:08:00,
2013-03-10 19:13:00,32.9,29.5,30.38,NNE,22,0.0,0.0,87,0.00,,,0.00,Weather View 32 v70,2013-03-11 03:13:00,
2013-03-10 19:18:00,32.5,29.1,30.38,NNE,22,0.0,0.0,87,0.00,,,0.00,Weather View 32 v70,2013-03-11 03:18:00,
2013-03-10 19:23:00,32.0,28.6,30.38,NNE,22,0.0,0.0,87,0.00,,,0.00,Weather View 32 v70,2013-03-11 03:23:00,
2013-03-10 19:28:00,31.8,28.7,30.39,NNE,22,0.0,0.0,88,0.00,,,0.00,Weather View 32 v70,2013-03-11 03:28:00,
2013-03-10 19:33:00,32.2,29.0,30.39,NNE,22,0.0,0.0,88,0.00,,,0.00,Weather View 32 v70,2013-03-11 03:33:00,
2013-03-10 19:38:00,31.8,28.7,30.39,NNE,22,0.0,0.0,88,0.00,,,0.00,Weather View 32 v70,2013-03-11 03:38:00,
2013-03-10 19:43:00,31.8,28.7,30.40,NNE,22,0.0,0.0,88,0.00,,,0.00,Weather View 32 v70,2013-03-11 03:43:00,
2013-03-10 19:48:00,31.8,28.7,30.40,NNE,22,0.0,0.0,88,0.00,,,0.00,Weather View 32 v70,2013-03-11 03:48:00,
2013-03-10 19:53:00,31.8,28.7,30.40,NNE,22,0.0,0.0,88,0.00,,,0.00,Weather View 32 v70,2013-03-11 03:53:00,
2013-03-10 19:58:00,31.8,28.9,30.40,NNE,22,0.0,0.0,89,0.00,,,0.00,Weather View 32 v70,2013-03-11 03:58:00,
2013-03-10 20:00:00,31.8,28.9,30.40,NNE,22,0.0,0.0,89,0.00,,,0.00,Weather View 32 v70,2013-03-11 04:00:00,
2013-03-10 20:05:00,31.5,28.6,30.39,NNE,22,0.0,0.0,89,0.00,,,0.00,Weather View 32 v70,2013-03-11 04:05:00,
2013-03-10 20:10:00,31.5,28.6,30.39,NNE,22,0.0,0.0,89,0.00,,,0.00,Weather View 32 v70,2013-03-11 04:10:00,
2013-03-10 20:15:00,31.5,28.6,30.39,NNE,22,0.0,0.0,89,0.00,,,0.00,Weather View 32 v70,2013-03-11 04:15:00,
2013-03-10 20:20:00,31.1,28.0,30.39,NNE,22,0.0,0.0,88,0.00,,,0.00,Weather View 32 v70,2013-03-11 04:20:00,
2013-03-10 20:25:00,31.1,28.0,30.37,NNE,22,0.0,0.0,88,0.00,,,0.00,Weather View 32 v70,2013-03-11 04:25:00,
2013-03-10 20:30:00,30.7,27.6,30.37,NNE,22,0.0,0.0,88,0.00,,,0.00,Weather View 32 v70,2013-03-11 04:30:00,
2013-03-10 20:35:00,30.7,27.6,30.37,NNE,22,0.0,0.0,88,0.00,,,0.00,Weather View 32 v70,2013-03-11 04:35:00,
2013-03-10 20:40:00,30.7,27.6,30.37,NNE,22,0.0,0.0,88,0.00,,,0.00,Weather View 32 v70,2013-03-11 04:40:00,
2013-03-10 20:45:00,30.7,27.9,30.37,NNE,22,0.0,0.0,89,0.00,,,0.00,Weather View 32 v70,2013-03-11 04:45:00,
2013-03-10 20:50:00,30.4,27.5,30.37,NNE,22,0.0,0.0,89,0.00,,,0.00,Weather View 32 v70,2013-03-11 04:50:00,
2013-03-10 20:55:00,30.7,27.9,30.37,NNE,22,0.0,0.0,89,0.00,,,0.00,Weather View 32 v70,2013-03-11 04:55:00,
2013-03-10 21:00:00,30.6,27.7,30.37,NNE,22,0.0,0.0,89,0.00,,,0.00,Weather View 32 v70,2013-03-11 05:00:00,
2013-03-10 21:05:00,30.6,27.7,30.38,NNE,22,0.0,0.0,89,0.00,,,0.00,Weather View 32 v70,2013-03-11 05:05:00,
2013-03-10 21:10:00,30.6,27.7,30.38,NNE,22,0.0,0.0,89,0.00,,,0.00,Weather View 32 v70,2013-03-11 05:10:00,
2013-03-10 21:15:00,30.6,27.7,30.38,NNE,22,0.0,0.0,89,0.00,,,0.00,Weather View 32 v70,2013-03-11 05:15:00,
2013-03-10 21:20:00,30.4,27.5,30.38,NNE,22,0.0,0.0,89,0.00,,,0.00,Weather View 32 v70,2013-03-11 05:20:00,
2013-03-10 21:25:00,30.4,27.5,30.39,NNE,22,0.0,0.0,89,0.00,,,0.00,Weather View 32 v70,2013-03-11 05:25:00,
2013-03-10 21:30:00,30.4,27.5,30.39,NNE,22,0.0,0.0,89,0.00,,,0.00,Weather View 32 v70,2013-03-11 05:30:00,
2013-03-10 21:35:00,30.4,27.5,30.39,NNE,22,0.0,0.0,89,0.00,,,0.00,Weather View 32 v70,2013-03-11 05:35:00,
2013-03-10 21:40:00,30.4,27.5,30.39,NNE,22,0.0,0.0,89,0.00,,,0.00,Weather View 32 v70,2013-03-11 05:40:00,
2013-03-10 21:45:00,30.4,27.5,30.39,NNE,22,0.0,0.0,89,0.00,,,0.00,Weather View 32 v70,2013-03-11 05:45:00,
2013-03-10 21:50:00,30.4,27.5,30.39,NNE,22,0.0,0.0,89,0.00,,,0.00,Weather View 32 v70,2013-03-11 05:50:00,
2013-03-10 21:55:00,30.4,27.5,30.39,NNE,22,0.0,0.0,89,0.00,,,0.00,Weather View 32 v70,2013-03-11 05:55:00,
2013-03-10 22:00:00,30.4,27.5,30.39,NNE,22,0.0,0.0,89,0.00,,,0.00,Weather View 32 v70,2013-03-11 06:00:00,
2013-03-10 22:05:00,30.4,27.5,30.41,NNE,22,0.0,0.0,89,0.00,,,0.00,Weather View 32 v70,2013-03-11 06:05:00,
2013-03-10 22:10:00,30.4,27.5,30.41,NNE,22,0.0,0.0,89,0.00,,,0.00,Weather View 32 v70,2013-03-11 06:10:00,
2013-03-10 22:15:00,30.0,27.2,30.41,NNE,22,0.0,0.0,89,0.00,,,0.00,Weather View 32 v70,2013-03-11 06:15:00,
2013-03-10 22:20:00,30.0,27.2,30.41,NNE,22,0.0,0.0,89,0.00,,,0.00,Weather View 32 v70,2013-03-11 06:20:00,
2013-03-10 22:25:00,29.8,27.0,30.40,NNE,22,0.0,0.0,89,0.00,,,0.00,Weather View 32 v70,2013-03-11 06:25:00,
2013-03-10 22:30:00,29.8,27.0,30.40,NNE,22,0.0,0.0,89,0.00,,,0.00,Weather View 32 v70,2013-03-11 06:30:00,
2013-03-10 22:35:00,30.0,27.2,30.40,NNE,22,0.0,0.0,89,0.00,,,0.00,Weather View 32 v70,2013-03-11 06:35:00,
2013-03-10 22:40:00,29.8,27.0,30.40,NNE,22,0.0,0.0,89,0.00,,,0.00,Weather View 32 v70,2013-03-11 06:40:00,
2013-03-10 22:45:00,29.8,27.0,30.41,NNE,22,0.0,0.0,89,0.00,,,0.00,Weather View 32 v70,2013-03-11 06:45:00,
2013-03-10 22:50:00,30.0,27.2,30.41,NNE,22,0.0,0.0,89,0.00,,,0.00,Weather View 32 v70,2013-03-11 06:50:00,
2013-03-10 22:55:00,30.0,27.2,30.41,NNE,22,0.0,0.0,89,0.00,,,0.00,Weather View 32 v70,2013-03-11 06:55:00,
2013-03-10 23:00:00,30.0,27.2,30.41,NNE,22,0.0,0.0,89,0.00,,,0.00,Weather View 32 v70,2013-03-11 07:00:00,
2013-03-10 23:05:00,30.0,27.2,30.41,NNE,22,0.0,0.0,89,0.00,,,0.00,Weather View 32 v70,2013-03-11 07:05:00,
2013-03-10 23:10:00,30.0,27.2,30.41,NNE,22,0.0,0.0,89,0.00,,,0.00,Weather View 32 v70,2013-03-11 07:10:00,
2013-03-10 23:15:00,30.0,27.2,30.41,NNE,22,0.0,0.0,89,0.00,,,0.00,Weather View 32 v70,2013-03-11 07:15:00,
2013-03-10 23:20:00,30.0,27.2,30.41,NNE,22,0.0,0.0,89,0.00,,,0.00,Weather View 32 v70,2013-03-11 07:20:00,
2013-03-10 23:25:00,29.8,27.0,30.41,NNE,22,0.0,0.0,89,0.00,,,0.00,Weather View 32 v70,2013-03-11 07:25:00,
2013-03-10 23:30:00,29.8,27.0,30.41,NNE,22,0.0,0.0,89,0.00,,,0.00,Weather View 32 v70,2013-03-11 07:30:00,
2013-03-10 23:35:00,30.0,27.2,30.41,NNE,22,0.0,0.0,89,0.00,,,0.00,Weather View 32 v70,2013-03-11 07:35:00,
2013-03-10 23:40:00,30.0,27.2,30.41,NNE,22,0.0,0.0,89,0.00,,,0.00,Weather View 32 v70,2013-03-11 07:40:00,
2013-03-10 23:45:00,30.0,27.2,30.42,NNE,22,0.0,0.0,89,0.00,,,0.00,Weather View 32 v70,2013-03-11 07:45:00,
2013-03-10 23:50:00,30.0,27.2,30.42,NNE,22,0.0,0.0,89,0.00,,,0.00,Weather View 32 v70,2013-03-11 07:50:00,
2013-03-10 23:55:00,30.0,27.2,30.42,NNE,22,0.0,0.0,89,0.00,,,0.00,Weather View 32 v70,2013-03-11 07:55:00,